This is the latest recevied weather packets stored in our database for station/object KI5QWQ. If no packets are shown the sender has not sent any weather packets the latest 1 day(s).
| Time | Temp. | Humidity | Pressure | Rain* | Wind** | Luminosity | Snow |
|---|---|---|---|---|---|---|---|
| 1778020885 | - | - | - | 0 mm | 0 m/s | - | - |
| 1778020583 | - | - | - | 0 mm | 0.89 m/s, 173° | - | - |
| 1778020279 | - | - | - | 0 mm | 0.89 m/s, 233° | - | - |
| 1778019975 | - | - | - | 0 mm | 1.34 m/s, 210° | - | - |
| 1778019672 | - | - | - | 0 mm | 0.45 m/s, 215° | - | - |
| 1778019369 | - | - | - | 0 mm | 1.34 m/s, 223° | - | - |
| 1778019065 | - | - | - | 0 mm | 1.34 m/s, 219° | - | - |
| 1778018763 | - | - | - | 0 mm | 1.34 m/s, 135° | - | - |
| 1778018461 | - | - | - | 0 mm | 0.45 m/s, 244° | - | - |
| 1778018158 | - | - | - | 0 mm | 0.89 m/s, 180° | - | - |
| 1778017856 | - | - | - | 0 mm | 0 m/s | - | - |
| 1778017554 | - | - | - | 0 mm | 0.89 m/s, 238° | - | - |
| 1778017250 | - | - | - | 0 mm | 0.45 m/s, 203° | - | - |
| 1778016948 | - | - | - | 0 mm | 0.89 m/s, 183° | - | - |
| 1778016644 | - | - | - | 0 mm | 1.34 m/s, 230° | - | - |
| 1778016341 | - | - | - | 0 mm | 1.34 m/s, 216° | - | - |
| 1778016038 | - | - | - | 0 mm | 0.89 m/s, 169° | - | - |
| 1778015735 | - | - | - | 0 mm | 0.45 m/s, 162° | - | - |
| 1778015431 | - | - | - | 0 mm | 1.34 m/s, 233° | - | - |
| 1778015128 | - | - | - | 0 mm | 2.24 m/s, 152° | - | - |
| 1778014826 | - | - | - | 0 mm | 0.89 m/s, 204° | - | - |
| 1778014524 | - | - | - | 0 mm | 0.45 m/s, 208° | - | - |
| 1778014221 | - | - | - | 0 mm | 0.89 m/s, 223° | - | - |
| 1778013918 | - | - | - | 0 mm | 1.34 m/s, 208° | - | - |
| 1778013615 | - | - | - | 0 mm | 0.45 m/s, 231° | - | - |
* Rain latest hour (hover to see other rain measurements)
** Current wind speed in m/s (hover to see current wind gust speed)